Regional Weather Roundup
Issued by NWS

Home | Current Version | Previous Version | Graphics & Text | Print | Product List | Glossary On
Versions: 1 2 3 4 5 6 7 8 9 10 11 12 13 14 15 16 17 18 19 20 21 22 23 24 25 26 27 28 29 30 31 32 33 34 35 36 37 38 39 40 41 42 43 44 45 46 47 48 49 50
000
ASUS45 KABQ 300101
RWRNM
NEW MEXICO REGIONAL WEATHER ROUNDUP
NATIONAL WEATHER SERVICE ALBUQUERQUE NM
700 PM MDT SUN MAY 29 2016

NOTE: "FAIR" MEANS FEW OR NO CLOUDS BELOW 12,000 FEET AGL WITH NO
       SIGNIFICANT WEATHER OR OBSTRUCTIONS TO VISION.

      THIS PRODUCT IS RELEASED AS TWO VERSIONS.  ONE VERSION NEAR
      THE TOP OF THE HOUR CONTAINING PRELIMINARY DATA FROM ALBUQUERQUE
      AND OTHER STATIONS.  A FINAL VERSION WITH ADDITIONAL DATA IS
      ISSUED ABOUT 10 MINUTES AFTER THE HOUR.

NMZ501-503-504-510>518-300200-
NORTHWEST PLATEAU/NORTHCENTRAL MOUNTAINS

CITY           SKY/WX    TMP DP  RH WIND       PRES   REMARKS
FARMINGTON     FAIR      80  16   9 W15       30.01S
SANTA FE       FAIR      79   8   6 SW17G24   30.07F
TAOS           FAIR      73  16  11 SW16      30.13F

$$
NMZ402-403-502-505>509-300200-
WESTCENTRAL MOUNTAINS/SOUTHWEST MOUNTAINS

CITY           SKY/WX    TMP DP  RH WIND       PRES   REMARKS
GALLUP         FAIR      76   8   7 W8        30.09F
GRANTS         FAIR      77   9   7 W9G16     30.11S
SILVER CITY      N/A     82  19   9 W13G18    30.08S

$$
NMZ407-409-411-412-300200-
SOUTHERN DESERTS

CITY           SKY/WX    TMP DP  RH WIND       PRES   REMARKS
LORDSBURG      FAIR      84  27  12 SW7       29.98S
DEMING         FAIR      86  31  13 SW12      29.99F
HOLLOMAN AFB   FAIR      89  21   8 SW9       29.96F
ALAMOGORDO     FAIR      88  21   8 W10G16    29.98F
T OR C         FAIR      86  19   8 SW15G24   29.99F

$$
NMZ519>523-300200-
CENTRAL VALLEYS/CENTRAL HIGHLANDS

CITY           SKY/WX    TMP DP  RH WIND       PRES   REMARKS
ALBUQUERQUE    FAIR      83  16   8 S16       30.01F
DOUBLE EAGLE   MOSUNNY   82  16   8 SW13G22   30.05F
CLINES CORNERS FAIR      71  14  11 SW22      30.14S
BELEN          FAIR      82  17   9 S17       30.00F
SOCORRO        NOT AVBL

$$
NMZ524>526-539-540-300200-
SOUTHCENTRAL MOUNTAINS

CITY           SKY/WX    TMP DP  RH WIND       PRES   REMARKS
RUIDOSO        NOT AVBL

$$
NMZ527>531-300200-
NORTHEAST HIGHLANDS/NORTHEAST PLAINS

CITY           SKY/WX    TMP DP  RH WIND       PRES   REMARKS
LAS VEGAS      FAIR      71  31  22 S16       30.13S
RATON          FAIR      72  30  21 S8        30.10R
CLAYTON        FAIR      58  52  80 E25G31    30.11R

$$
NMZ532>537-300200-
EASTCENTRAL PLAINS

CITY           SKY/WX    TMP DP  RH WIND       PRES   REMARKS
TUCUMCARI      FAIR      69  50  50 S18G30    30.00F
CANNON AFB     FAIR      60  54  80 E26G33    30.10R
CLOVIS AIRPORT PTSUNNY   57  52  82 E28G36    30.12F

$$
NMZ028-029-538-300200-
SOUTHEAST PLAINS

CITY           SKY/WX    TMP DP  RH WIND       PRES   REMARKS
ROSWELL        FAIR      83  42  23 SE17      30.01R
ARTESIA        FAIR      81  55  41 SE16G23   29.98F
CARLSBAD       FAIR      82  47  29 SE13      29.96F
HOBBS          FAIR      75  63  64 SE6       30.04S


$$




USA.gov is the U.S. government's official web portal to all federal, state and local government web resources and services.